GFSSGP_con_mucape_132.txt.gz
CAPE
0 0 0 0 0 0 0 0 0 0 0 0 0 0 0 0 0 238 57 0 79 182 240 386 601 818 925 846 756 640 421 56 25 6 17 9 18 22 13 33 37 27 21 20 6 16 4 10 20
0 0 0 0 0 0 0 0 0 0 0 0 0 0 0 0 11 0 97 0 72 152 206 224 503 776 796 759 695 580 365 29 8 6 9 9 7 19 48 20 47 23 12 22 21 13 10 13 11
0 0 0 0 0 0 0 0 0 0 0 0 0 0 0 0 0 10 64 0 35 68 172 168 446 683 679 643 626 578 382 160 3 8 23 16 15 26 35 35 50 38 11 25 25 9 5 8 0
0 0 0 0 0 0 0 0 0 0 0 0 0 0 0 0 0 73 16 0 8 161 184 182 466 591 614 595 570 537 289 22 3 7 14 25 2 25 25 40 40 21 33 17 6 9 2 0 0
0 0 0 0 0 0 2 0 0 0 0 0 0 0 1 7 37 49 7 0 2 109 135 144 304 419 483 570 546 525 408 167 9 5 12 5 12 17 25 35 35 36 26 10 8 2 0 0 0
0 0 0 0 0 2 0 16 0 0 0 0 0 0 30 24 71 53 22 1 4 72 84 68 176 259 346 486 481 468 386 290 96 25 2 7 14 29 33 35 29 35 42 32 7 0 0 0 0
0 0 0 0 0 0 0 0 0 0 0 0 0 0 8 39 102 61 34 5 104 3 56 64 71 121 179 205 223 264 235 189 84 18 7 7 19 34 34 36 29 5 3 9 2 0 0 0 0
0 0 0 0 0 0 0 0 0 0 0 0 0 0 0 54 95 52 50 169 8 5 13 47 65 14 39 37 85 82 29 62 18 0 0 0 0 7 7 11 2 2 10 0 0 0 0 0 0
0 0 0 0 0 0 0 0 0 0 0 0 0 0 5 88 71 64 62 62 131 17 1 5 46 27 16 1 0 17 9 10 0 0 0 0 0 0 0 0 8 24 13 0 0 0 0 0 0
0 0 0 0 0 0 0 0 0 0 0 0 0 0 44 57 56 65 39 28 5 4 0 0 1 0 3 10 0 6 0 4 0 0 0 0 0 0 0 0 0 2 0 0 0 0 0 0 0
0 0 0 0 0 0 0 0 0 0 0 0 0 0 35 61 45 73 42 35 1 3 0 0 0 0 0 0 0 24 5 7 9 3 0 0 2 0 0 0 0 0 0 0 0 0 0 0 1
0 0 0 0 0 0 0 0 0 0 0 0 0 0 1 106 19 18 29 26 27 2 45 0 0 0 0 0 0 22 41 15 13 10 5 3 0 0 0 0 0 0 0 0 0 0 0 0 0
1 0 0 0 0 0 0 0 0 0 0 0 0 0 0 81 29 22 50 38 16 0 2 3 0 0 0 0 0 9 12 20 11 7 4 4 0 0 0 0 0 0 0 0 0 0 0 0 0
14 0 0 0 0 0 0 0 0 0 0 0 0 0 0 15 39 50 50 66 22 1 11 0 2 0 0 0 0 0 1 0 0 1 0 0 0 0 0 0 0 0 0 0 0 0 0 0 0
6 0 0 0 0 0 0 0 0 0 0 0 0 0 0 0 0 33 87 67 5 0 0 0 0 0 0 0 0 0 0 0 0 0 0 0 0 0 0 0 0 0 0 0 0 0 0 0 0
2 8 0 0 0 0 0 0 0 0 0 0 0 0 0 0 0 0 7 82 42 21 9 0 0 0 0 0 0 0 0 0 0 0 0 0 0 0 0 0 0 0 0 0 0 0 0 0 0
35 0 0 0 0 0 0 0 0 0 0 0 0 0 0 0 0 0 0 17 42 42 29 48 20 11 0 0 0 0 0 0 0 0 0 0 0 0 0 0 0 0 0 0 0 0 0 0 0
3 5 0 0 1 0 0 0 0 0 0 0 0 0 0 0 0 0 0 0 24 41 29 48 37 36 28 0 0 0 1 3 3 3 0 0 0 0 0 0 0 0 0 0 0 0 0 0 0
0 1 3 0 4 0 0 0 0 0 0 0 0 0 0 0 0 0 0 0 0 0 51 69 46 41 48 41 12 0 0 0 0 7 6 0 0 0 0 0 0 0 0 0 0 0 0 0 0
8 6 0 0 8 0 0 0 0 0 0 0 0 0 0 0 0 0 0 0 0 0 0 6 40 45 52 56 46 8 0 0 0 0 1 1 0 0 0 0 0 0 0 0 0 0 0 0 0
3 11 0 1 16 0 0 0 0 0 0 0 0 0 0 0 0 0 0 0 0 0 0 0 2 24 41 44 58 31 20 15 10 1 0 0 0 0 0 0 0 0 0 0 0 0 0 0 0
1 0 10 15 29 0 8 0 0 0 0 0 0 0 0 0 0 0 0 0 0 0 0 0 0 0 1 34 34 60 43 29 36 11 0 0 0 0 0 0 0 0 0 0 0 0 0 0 0
0 3 6 22 36 16 0 0 0 0 0 0 0 0 0 0 0 0 0 0 0 0 0 0 0 0 0 0 0 46 61 24 25 3 0 0 0 0 0 0 0 0 0 0 0 0 0 0 0
11 31 17 28 32 18 0 0 0 0 0 0 0 0 0 0 0 0 0 0 0 0 0 0 0 0 0 0 0 2 77 61 8 0 1 0 0 0 0 0 0 0 0 0 0 0 0 6 9
43 84 13 15 15 0 0 1 0 0 0 0 0 0 0 0 0 0 0 0 0 0 0 0 0 0 0 0 0 0 1 77 19 2 0 0 0 0 0 0 0 0 0 0 0 0 0 0 3
8 26 13 15 0 0 0 0 0 0 0 0 0 0 0 0 0 0 0 0 0 0 0 0 0 0 0 0 0 0 0 0 50 42 3 1 0 0 0 0 0 0 0 0 0 0 0 0 0
20 62 16 5 2 0 0 0 0 0 0 0 0 0 0 0 0 0 0 0 0 0 0 0 0 0 0 0 0 0 0 0 0 12 17 11 3 1 0 0 0 0 0 0 0 3 6 3 0
9 37 29 13 0 2 0 0 0 0 0 0 0 0 0 0 0 0 0 0 0 0 0 0 0 0 0 0 0 0 0 0 0 0 0 2 4 4 7 10 7 1 0 0 0 6 5 15 6
7 2 0 0 0 0 0 0 0 0 4 0 0 0 0 0 0 0 0 0 0 0 0 0 0 0 0 0 0 0 0 0 0 0 0 0 0 1 6 11 21 12 6 3 3 4 1 5 4
4 1 0 0 0 0 0 0 0 0 0 0 0 0 0 0 0 0 0 0 0 0 0 0 0 0 0 0 0 0 0 0 0 0 0 0 0 0 0 11 22 20 11 7 5 4 12 19 12

GFSSGP_con_mucape_135.txt.gz
CAPE
0 0 0 0 0 0 0 0 0 0 0 0 0 0 0 0 8 45 0 75 104 178 337 374 719 950 935 712 616 456 333 55 5 14 25 6 38 22 34 32 56 38 35 21 20 10 19 12 2
0 0 0 0 0 0 0 0 0 0 0 0 0 0 0 0 0 26 1 47 67 93 233 336 600 913 811 639 547 431 294 77 5 22 15 13 23 37 14 38 47 16 26 17 14 7 3 4 0
0 0 0 0 0 0 0 0 0 0 0 0 0 0 0 2 0 52 26 47 54 129 127 281 478 720 665 592 498 381 237 96 7 8 18 9 31 24 33 37 40 29 29 15 12 4 3 0 0
0 0 0 0 0 0 0 0 0 0 0 0 0 0 0 0 12 26 1 2 44 129 68 239 496 597 548 568 497 359 150 9 44 19 13 12 21 30 34 39 28 29 12 6 4 1 0 0 0
0 0 0 0 0 0 0 0 0 0 0 0 0 0 13 46 53 32 0 3 94 67 75 178 329 473 480 540 502 348 240 59 28 13 12 5 16 29 26 36 37 37 20 8 1 0 0 0 0
0 0 0 0 0 1 11 5 0 0 0 0 0 0 0 77 45 2 0 0 121 64 44 80 150 203 314 416 425 365 266 164 52 13 15 5 11 26 28 24 36 28 13 3 0 0 0 0 0
0 0 0 0 0 0 1 0 0 0 0 0 0 0 23 71 72 12 2 1 68 0 0 30 64 83 157 260 254 227 231 98 62 19 15 11 20 23 36 26 23 8 7 23 3 0 0 0 0
0 0 0 0 0 0 0 0 0 0 0 0 0 0 1 33 114 53 28 0 6 32 0 0 28 22 57 105 138 104 53 12 9 1 0 0 7 14 12 8 4 3 6 7 0 0 0 0 0
0 0 0 0 0 0 0 0 0 0 0 0 0 0 9 138 113 99 40 7 2 2 7 2 0 14 4 0 34 48 16 0 0 0 0 0 0 0 0 0 3 2 24 4 0 0 0 0 0
0 0 0 0 0 0 0 0 0 0 0 0 0 79 177 150 53 86 19 8 0 2 13 0 10 0 0 0 0 10 1 4 0 0 0 0 0 0 0 0 0 7 10 5 0 0 0 0 0
0 0 0 0 0 0 0 0 0 0 0 0 0 57 167 114 83 41 29 7 0 0 2 0 0 3 0 0 0 0 0 0 1 0 0 0 0 0 0 0 0 0 0 0 0 0 0 0 0
0 0 0 0 0 0 0 0 0 0 0 0 0 1 160 103 19 73 14 8 0 1 0 0 0 0 0 0 0 0 0 0 1 2 2 0 0 0 0 0 0 0 0 0 0 0 0 0 0
0 0 0 0 0 0 0 0 0 0 0 0 0 0 84 174 70 10 33 21 8 5 5 0 0 0 0 0 0 0 0 0 0 0 5 1 0 0 0 0 0 0 0 0 0 0 0 0 0
0 0 2 0 0 0 0 0 0 0 0 0 0 0 0 121 148 41 12 19 20 0 22 12 0 0 0 0 0 0 0 0 0 4 2 3 0 0 0 0 0 0 0 0 0 0 0 0 0
0 0 1 0 0 0 0 0 0 0 0 0 0 0 0 0 125 143 101 133 143 47 0 59 34 0 0 0 0 0 0 0 0 0 0 0 0 0 0 0 0 0 0 0 0 0 0 0 0
0 0 0 0 0 0 0 0 0 0 0 0 0 0 0 0 0 121 138 197 216 183 33 0 45 23 1 0 0 0 0 0 0 0 0 0 0 0 0 0 0 0 0 0 0 0 0 0 0
22 0 0 0 0 0 0 0 0 0 0 0 0 0 0 0 0 11 89 233 283 222 123 21 6 35 23 9 0 0 0 0 0 0 0 0 0 0 0 0 0 0 0 0 0 0 0 0 0
0 0 0 0 0 0 2 0 0 0 0 0 0 0 0 0 0 0 0 57 208 256 176 91 42 26 64 43 13 0 0 0 0 0 0 0 0 0 0 0 0 0 0 0 0 0 0 0 0
0 0 0 0 0 3 0 0 0 0 0 0 0 0 0 0 0 0 0 0 91 175 186 120 81 98 38 38 44 19 0 0 0 0 0 0 0 0 0 0 0 0 0 0 0 0 0 0 0
17 27 0 0 5 6 0 0 0 0 0 0 0 0 0 0 0 0 0 0 2 84 171 150 55 56 76 40 30 20 7 1 23 13 17 0 0 0 0 0 0 0 0 0 0 0 0 0 0
10 2 0 0 14 23 3 0 0 0 0 0 0 0 0 0 0 0 0 0 0 0 48 162 139 141 120 97 58 42 24 23 35 71 42 0 0 0 0 0 0 0 0 0 0 0 0 0 0
0 0 0 15 28 0 2 0 0 0 0 0 0 0 0 0 0 0 0 0 0 0 0 28 46 89 142 153 92 59 67 51 57 60 57 47 10 0 0 0 0 0 0 0 2 0 0 0 0
0 5 7 27 31 32 0 24 0 0 0 0 0 0 0 0 0 0 0 0 0 0 0 0 14 7 26 31 84 112 97 106 94 56 47 61 52 30 5 0 8 0 0 0 0 2 0 0 0
3 26 19 20 29 0 0 6 0 0 0 0 0 0 0 0 0 0 0 0 0 0 0 0 0 0 0 5 5 2 38 111 141 108 72 53 44 29 20 6 4 0 1 1 1 2 1 14 35
86 57 44 52 8 0 0 0 0 0 0 0 0 0 0 0 0 0 0 0 0 0 0 0 0 0 0 0 0 3 6 6 91 145 99 71 20 14 23 8 0 0 0 0 0 0 0 5 24
34 47 91 1 1 1 1 0 0 0 0 0 0 0 0 0 0 0 0 0 0 0 0 0 0 0 0 0 0 0 0 0 0 63 132 85 28 12 25 23 14 0 0 0 1 0 0 0 1
12 68 13 20 2 25 0 0 0 0 0 0 0 0 0 0 0 0 0 0 0 0 0 0 0 0 0 0 0 0 0 0 0 0 32 103 108 83 34 11 5 0 0 0 0 0 0 0 3
16 0 12 32 7 4 0 0 0 0 0 0 0 0 0 0 0 0 0 0 0 0 0 0 0 0 0 0 0 0 0 0 0 0 0 13 62 102 97 69 27 15 14 11 8 10 6 0 1
46 8 17 25 46 13 0 0 0 0 0 0 0 0 0 0 0 0 0 0 0 0 0 0 0 0 0 0 0 0 0 0 0 0 0 1 11 27 57 81 90 60 55 48 42 14 14 12 5
17 20 5 15 14 41 0 4 3 1 0 0 0 0 0 0 0 0 0 0 0 0 0 0 0 0 0 0 0 0 0 0 0 0 0 0 0 7 16 24 35 36 39 86 75 36 42 35 15

GFSSGP_con_mucape_138.txt.gz
CAPE
0 0 0 0 0 0 0 0 0 0 0 0 0 0 0 0 4 0 0 1 11 202 309 528 823 907 722 627 467 403 316 39 3 31 7 45 106 61 25 22 31 34 12 13 14 8 12 16 21
0 0 0 0 0 0 0 0 0 0 0 0 0 0 0 0 13 22 23 16 28 186 209 372 607 809 577 441 454 389 248 81 3 10 7 45 18 10 18 12 28 31 28 9 4 9 8 14 8
0 0 0 0 0 0 0 0 0 0 0 0 0 0 0 0 0 33 30 46 12 117 169 342 577 724 490 436 421 325 186 90 4 8 12 14 35 13 46 19 14 24 17 9 7 6 2 0 0
0 0 0 0 0 0 0 0 0 0 0 0 0 0 0 0 1 51 52 64 23 33 123 286 572 632 465 437 245 113 128 1 4 7 11 11 21 11 30 40 29 16 7 8 5 0 0 0 0
0 0 0 0 0 0 0 0 0 0 0 0 0 0 0 22 10 33 70 66 47 26 70 211 399 516 514 431 250 192 104 62 14 12 10 15 32 27 26 33 20 20 8 6 1 0 0 0 0
0 0 0 0 0 0 0 0 0 0 0 0 0 0 0 62 52 25 45 56 84 34 43 139 220 237 311 347 330 261 197 77 14 15 10 6 33 37 32 41 31 8 11 1 1 0 0 0 0
0 0 0 0 0 0 0 0 0 0 0 0 0 0 7 85 19 2 23 112 59 22 24 28 44 82 134 173 166 188 208 143 31 22 6 3 6 31 31 10 34 13 15 11 1 0 0 0 0
0 0 0 0 0 0 0 0 0 0 0 0 0 0 0 54 43 0 10 134 98 7 6 0 0 0 30 100 113 86 55 14 35 0 0 0 0 2 12 3 8 4 10 28 11 0 0 0 0
0 0 0 0 0 0 0 0 0 0 0 0 0 0 0 38 118 46 69 43 68 11 0 0 0 0 0 28 56 56 24 0 0 0 0 0 0 0 0 0 1 6 8 12 0 0 0 0 0
0 0 0 0 0 0 0 0 0 0 0 0 0 46 51 149 173 45 90 36 72 53 1 0 0 0 0 0 0 12 14 0 0 0 0 0 0 0 0 0 0 4 2 19 0 0 0 0 0
0 0 0 0 0 0 0 0 0 0 0 0 0 10 169 178 164 115 94 55 50 38 25 6 0 0 0 0 0 0 0 1 0 0 0 0 0 0 0 0 0 0 7 2 0 0 0 0 0
0 0 0 0 0 0 0 0 0 0 0 0 0 0 117 145 88 176 128 104 73 59 37 4 11 10 0 0 0 0 0 0 0 0 0 0 0 0 0 0 0 0 0 0 0 0 0 0 0
0 0 0 0 0 0 0 0 0 0 0 0 0 0 58 110 91 59 84 102 95 66 52 27 0 14 1 0 0 0 0 0 0 0 0 0 0 0 0 0 0 0 0 0 0 0 0 0 0
0 0 0 0 0 0 0 0 0 0 0 0 0 0 6 103 83 96 101 94 93 62 68 38 19 0 0 0 0 0 0 0 0 0 0 0 0 0 0 0 0 0 0 0 0 0 0 0 0
0 0 0 0 0 0 0 0 0 0 0 0 0 0 0 0 71 125 137 99 82 109 65 94 72 10 0 0 0 0 0 0 0 0 0 0 0 0 0 0 0 0 0 0 0 0 0 0 0
0 0 0 0 0 0 0 0 0 0 0 0 0 0 0 0 0 31 124 166 142 108 116 50 136 93 42 29 2 0 0 0 0 0 7 0 0 0 0 0 0 0 0 0 0 0 0 0 0
17 0 0 0 0 0 0 0 0 0 0 0 0 0 0 0 0 0 4 122 222 223 208 216 69 173 140 49 22 2 8 6 1 0 0 4 0 0 0 0 0 0 0 0 0 0 0 0 0
0 0 1 0 0 0 0 0 0 0 0 0 0 0 0 0 0 0 0 2 175 264 308 302 260 49 193 120 41 21 11 13 10 0 0 0 0 0 0 0 0 0 0 0 0 0 0 0 0
2 0 0 0 0 0 0 0 0 0 0 0 0 0 0 0 0 0 0 0 16 210 318 380 334 251 25 83 148 56 55 32 23 28 25 25 5 0 0 0 0 0 0 0 0 0 0 0 0
5 0 0 0 0 0 0 0 0 0 0 0 0 0 0 0 0 0 0 0 0 21 235 340 373 332 225 111 73 111 97 50 42 42 46 77 77 56 21 0 0 0 0 0 0 0 0 0 0
6 0 0 0 0 0 0 0 0 0 0 0 0 0 0 0 0 0 0 0 0 0 35 227 343 372 270 272 214 179 145 98 79 79 87 109 127 124 117 61 19 1 0 0 0 0 0 0 0
0 0 0 3 30 0 0 0 0 0 0 0 0 0 0 0 0 0 0 0 0 0 0 2 176 304 263 276 234 217 182 109 108 125 102 92 121 148 155 145 104 57 32 28 17 7 0 6 0
0 0 0 5 22 18 0 5 0 0 0 0 0 0 0 0 0 0 0 0 0 0 0 0 0 6 91 160 284 300 256 224 191 132 123 128 145 154 130 149 142 121 89 74 52 24 22 19 39
6 17 34 35 23 0 0 0 0 0 0 0 0 0 0 0 0 0 0 0 0 0 0 0 0 0 0 0 0 44 197 245 217 180 132 133 143 162 174 190 147 114 104 102 80 67 52 28 16
34 47 0 0 0 0 0 0 0 0 0 0 0 0 0 0 0 0 0 0 0 0 0 0 0 0 0 0 0 0 0 2 30 118 209 215 158 117 130 170 155 140 112 96 95 64 47 38 27
1 11 0 0 0 0 0 0 0 0 0 0 0 0 0 0 0 0 0 0 0 0 0 0 0 0 0 0 0 0 0 0 0 0 2 115 163 136 108 112 103 108 117 95 74 52 39 39 9
10 41 3 33 9 14 0 0 0 0 0 0 0 0 0 0 0 0 0 0 0 0 0 0 0 0 0 0 0 0 0 0 0 0 0 0 121 179 174 147 127 111 108 109 103 55 37 25 17
27 10 49 52 0 0 5 0 0 0 0 0 0 0 0 0 0 0 0 0 0 0 0 0 0 0 0 0 0 0 0 0 0 0 0 0 0 87 167 117 109 103 106 117 93 96 71 55 9
10 41 46 17 46 0 0 0 0 0 0 0 0 0 0 0 0 0 0 0 0 0 0 0 0 0 0 0 0 0 0 0 0 0 0 0 0 0 38 97 82 73 83 101 135 120 76 43 48
10 1 11 24 0 11 3 0 0 0 0 0 0 0 0 0 0 0 0 0 0 0 0 0 0 0 0 0 0 0 0 0 0 0 0 0 0 0 0 0 37 63 62 67 81 86 100 74 61

GFSSGP_con_mucape_141.txt.gz
CAPE
0 0 0 0 0 0 0 0 0 0 0 0 0 0 0 0 0 0 0 0 10 110 281 390 662 613 503 364 332 521 452 87 0 6 60 335 31 11 12 28 52 28 7 16 10 15 13 21 20
0 0 0 0 0 0 0 0 0 0 0 0 0 0 0 0 11 0 0 1 38 131 284 313 433 688 414 211 224 250 121 29 1 0 0 209 64 35 14 11 31 14 14 12 12 7 19 11 13
0 0 0 0 0 0 0 0 0 0 0 0 0 0 0 0 0 0 0 14 93 122 215 280 393 647 276 134 114 144 117 42 1 1 3 8 14 14 23 7 10 24 12 11 12 11 5 0 1
0 0 0 0 0 0 0 0 0 0 0 0 0 0 0 0 0 12 23 15 56 74 140 255 477 572 268 197 72 14 0 2 0 1 0 43 23 77 26 23 19 12 8 9 7 1 0 0 0
0 0 0 0 0 0 0 0 0 0 0 0 0 0 0 0 0 45 64 22 9 38 113 274 435 472 415 278 45 25 10 5 14 3 5 35 27 35 34 37 14 12 6 8 2 0 0 0 0
0 0 0 0 0 0 0 0 0 0 0 0 0 0 0 22 61 29 75 52 18 10 78 206 292 295 311 298 194 110 34 48 37 20 11 17 40 43 43 25 13 0 6 5 1 0 0 0 0
0 0 0 0 0 0 0 0 0 0 0 0 0 0 0 52 48 29 126 59 48 36 65 120 131 148 176 136 95 93 80 27 25 23 4 5 7 44 36 31 44 5 12 0 0 0 0 0 0
0 0 0 0 0 0 0 0 0 0 0 0 0 0 0 17 28 32 75 90 96 56 35 59 47 44 61 68 39 16 13 4 0 4 0 0 0 5 14 0 12 3 17 21 0 0 0 0 0
0 0 0 0 0 0 0 0 0 0 0 0 0 0 0 0 33 27 30 151 110 75 26 17 19 12 27 51 37 28 4 0 0 0 0 0 0 0 0 0 1 16 5 32 25 0 0 0 0
0 0 0 0 0 0 0 0 0 0 0 0 0 4 1 30 58 47 60 52 156 110 52 6 0 0 0 14 35 16 2 0 0 0 0 0 0 0 0 0 0 2 4 18 22 1 0 0 0
0 0 0 0 0 0 0 0 0 0 0 0 0 0 8 108 121 69 83 103 100 129 81 30 2 3 3 5 12 0 0 0 0 0 0 0 0 0 0 0 0 0 0 3 14 0 0 0 0
0 0 0 0 0 0 0 0 0 0 0 0 0 0 0 129 151 164 58 100 117 81 123 78 36 35 20 4 5 2 0 0 0 0 0 0 0 0 0 0 0 0 0 0 0 0 0 0 0
0 0 0 0 0 0 0 0 0 0 0 0 0 0 0 0 58 77 96 59 116 108 105 133 105 92 53 31 17 0 0 0 0 0 0 0 0 0 0 0 0 0 0 0 0 0 0 0 0
0 0 0 0 0 0 0 0 0 0 0 0 0 0 0 0 0 19 47 51 46 74 124 128 174 116 93 83 48 13 1 2 0 0 0 0 0 0 0 0 0 0 0 0 0 0 0 0 0
0 0 0 0 0 0 0 0 0 0 0 0 0 0 0 0 0 1 5 20 35 41 60 121 150 151 109 94 85 33 33 30 8 0 0 0 0 0 0 0 0 0 0 0 0 0 0 0 0
0 0 0 0 0 0 0 0 0 0 0 0 0 0 0 0 0 0 0 5 15 63 64 77 90 188 186 99 47 54 38 37 29 9 0 0 0 18 2 0 0 0 0 0 0 0 0 0 0
12 0 0 0 0 0 0 0 0 0 0 0 0 0 0 0 0 0 0 0 0 10 65 81 89 114 166 245 88 55 96 60 30 42 54 40 0 0 0 0 0 0 0 0 0 0 0 0 0
0 0 0 0 0 0 0 0 0 0 0 0 0 0 0 0 0 0 0 0 0 0 46 127 168 194 184 168 294 188 120 87 71 44 49 68 77 64 33 37 8 0 0 0 0 0 0 0 0
0 0 0 0 1 0 0 0 0 0 0 0 0 0 0 0 0 0 0 0 0 0 42 156 214 299 328 297 220 343 251 127 84 103 92 56 50 84 94 78 37 19 0 0 0 0 0 0 0
0 0 0 0 13 0 0 0 0 0 0 0 0 0 0 0 0 0 0 0 0 0 0 91 227 341 396 442 405 190 230 206 187 152 148 112 68 88 101 109 134 132 92 19 0 0 0 0 0
0 0 0 0 0 0 0 0 0 0 0 0 0 0 0 0 0 0 0 0 0 0 0 0 145 294 380 433 441 385 277 235 223 261 232 191 87 96 141 147 131 152 173 137 73 18 0 0 0
0 0 2 0 0 0 0 0 0 0 0 0 0 0 0 0 0 0 0 0 0 0 0 0 9 154 289 377 409 397 418 375 359 345 317 279 207 165 102 122 162 153 147 154 163 151 124 67 7
0 0 0 0 0 0 0 0 0 0 0 0 0 0 0 0 0 0 0 0 0 0 0 0 0 1 32 174 354 416 472 476 484 447 371 329 307 294 281 225 178 141 171 177 177 198 199 167 148
7 11 11 11 0 0 0 0 0 0 0 0 0 0 0 0 0 0 0 0 0 0 0 0 0 0 0 0 0 0 0 31 170 349 364 380 340 296 272 301 261 273 217 271 290 267 206 214 216
31 4 0 0 0 0 0 0 0 0 0 0 0 0 0 0 0 0 0 0 0 0 0 0 0 0 0 0 0 0 0 0 0 0 1 101 227 337 333 303 286 248 197 205 256 275 268 238 184
10 7 0 0 0 0 0 0 0 0 0 0 0 0 0 0 0 0 0 0 0 0 0 0 0 0 0 0 0 0 0 0 0 0 0 0 0 8 236 334 325 304 255 237 182 182 194 227 196
0 0 0 0 0 0 0 0 0 0 0 0 0 0 0 0 0 0 0 0 0 0 0 0 0 0 0 0 0 0 0 0 0 0 0 0 0 0 0 153 268 293 284 260 265 192 145 158 181
18 4 12 0 0 0 0 0 0 0 0 0 0 0 0 0 0 0 0 0 0 0 0 0 0 0 0 0 0 0 0 0 0 0 0 0 0 0 0 0 71 186 235 258 258 194 140 137 154
18 18 13 4 19 0 0 0 0 0 0 0 0 0 0 0 0 2 0 0 0 0 0 0 0 0 0 0 0 0 0 0 0 0 0 0 0 0 0 0 1 19 99 151 193 194 195 176 150
0 0 1 0 0 0 0 0 0 0 0 0 0 0 0 0 0 0 0 0 0 0 0 0 0 0 0 0 0 0 0 0 0 0 0 0 0 0 0 0 0 3 10 56 99 145 200 185 158

GFSSGP_con_mucape_147.txt.gz
CAPE
0 0 0 0 0 0 0 0 0 0 0 0 0 0 0 0 0 0 0 0 5 35 373 552 736 696 543 465 527 580 380 165 28 24 24 17 1 17 9 11 57 13 7 12 17 24 30 20 30
0 0 0 0 0 0 0 0 0 0 0 0 0 0 0 0 0 0 0 0 13 126 320 415 574 620 547 389 434 441 216 44 15 69 184 39 29 29 17 22 36 13 24 22 39 33 17 3 18
0 0 0 0 0 0 0 0 0 0 0 0 0 0 0 0 0 0 0 5 48 187 227 287 404 680 297 221 230 127 53 0 0 0 213 183 34 32 37 27 33 10 3 11 8 17 2 0 23
0 0 0 0 0 0 0 0 0 0 0 0 0 0 0 0 0 7 7 36 57 99 175 156 414 742 273 89 0 0 0 0 0 0 7 12 18 30 25 17 30 26 9 16 6 0 0 0 23
0 0 0 0 0 0 0 0 0 0 0 0 0 0 0 0 0 1 30 40 45 76 122 132 279 573 363 127 53 1 0 0 0 3 0 36 30 46 47 32 32 14 9 13 1 0 0 0 0
0 0 0 0 0 0 0 0 0 0 0 0 0 0 0 0 0 19 37 33 33 63 92 148 221 200 209 197 124 58 9 0 0 0 5 30 48 96 40 31 20 13 15 11 0 0 0 0 0
0 0 0 0 0 0 0 0 0 0 0 0 0 0 0 0 3 26 52 51 47 40 69 152 157 144 93 80 21 0 32 18 2 10 9 15 15 39 48 46 44 19 16 3 0 0 0 0 0
0 0 0 0 0 0 0 0 0 0 0 0 0 0 0 0 14 28 64 60 51 31 45 90 108 101 104 92 21 0 0 0 0 0 0 0 0 3 18 14 32 18 31 23 0 0 0 0 0
0 0 0 0 0 0 0 0 0 0 0 0 0 0 0 0 0 4 70 87 88 50 49 43 68 67 55 40 25 4 0 0 0 0 0 0 0 0 0 0 0 21 3 37 37 13 1 0 0
0 0 0 0 0 0 0 0 0 0 0 0 0 0 0 0 0 0 2 16 117 99 124 86 50 57 47 29 16 4 0 0 0 0 0 0 0 0 0 0 0 0 4 15 18 41 23 3 0
0 0 0 0 0 0 0 0 0 0 0 0 0 0 0 0 0 0 0 0 0 24 71 109 89 66 38 21 27 2 0 0 0 0 0 0 0 0 0 0 0 0 0 0 0 1 13 0 0
0 0 0 0 0 0 0 0 0 0 0 0 0 0 0 0 0 0 0 0 0 18 31 49 108 118 65 41 18 4 92 2 0 0 0 0 0 0 0 0 0 0 0 0 0 0 0 0 0
0 0 0 0 0 0 0 0 0 0 0 0 0 0 0 0 0 0 0 0 0 13 36 33 46 123 107 77 63 43 15 76 22 9 0 0 0 0 0 0 0 0 0 0 0 0 0 0 0
0 0 0 0 0 0 0 0 0 0 0 0 0 0 0 0 0 0 0 0 0 0 3 5 14 29 101 120 108 96 87 60 29 44 6 11 4 6 0 1 0 0 0 0 0 0 0 0 0
0 0 0 0 0 0 0 0 0 0 0 0 0 0 0 0 0 0 0 0 0 0 0 0 0 0 20 65 119 149 153 135 110 83 52 20 15 5 6 0 12 29 0 0 0 0 0 0 0
0 0 0 0 0 0 0 0 0 0 0 0 0 0 0 0 0 0 0 0 0 0 0 0 0 0 0 9 67 123 181 195 174 166 138 100 58 47 18 32 45 30 3 45 38 7 0 0 0
4 0 0 0 0 0 0 0 0 0 0 0 0 0 0 0 0 0 0 0 0 0 0 0 0 0 0 0 20 81 138 168 198 196 189 192 128 96 75 44 15 22 30 37 65 48 26 31 24
0 0 0 0 0 0 0 0 0 0 0 0 0 0 0 0 0 0 0 0 0 0 0 0 0 0 0 0 1 64 109 131 182 226 221 205 201 156 124 90 57 66 58 82 118 133 113 77 76
0 0 0 0 0 0 0 0 0 0 0 0 0 0 0 0 0 0 0 0 0 0 0 0 0 0 0 0 5 66 127 159 190 203 230 264 247 256 208 174 152 105 90 122 120 125 102 77 125
0 0 0 0 0 0 0 0 0 0 0 0 0 0 0 0 0 0 0 0 0 0 0 0 0 0 0 4 62 114 188 247 297 343 325 299 249 263 289 266 214 164 88 74 27 54 35 58 46
0 0 0 0 0 0 0 0 0 0 0 0 0 0 0 0 0 0 0 0 0 0 0 0 0 0 0 50 95 137 177 221 284 317 326 337 304 318 370 364 305 249 114 75 38 32 44 84 16
0 0 0 0 0 0 0 0 0 0 0 0 0 0 0 0 0 0 0 0 0 0 0 0 0 0 0 47 196 295 269 378 379 470 408 417 355 364 482 471 387 378 288 185 122 97 66 66 54
0 0 0 0 0 0 0 0 0 0 0 0 0 0 0 0 0 0 0 0 0 0 0 0 0 0 0 0 0 0 0 31 64 3 0 0 0 0 159 192 246 229 210 206 181 149 116 138 119
0 0 0 0 0 0 0 0 0 0 0 0 0 0 0 0 0 0 0 0 0 0 0 0 0 0 0 0 0 0 0 0 0 0 0 0 0 0 0 0 0 13 138 299 329 281 246 264 173
0 0 0 0 0 0 0 0 0 0 0 0 0 0 0 0 0 0 0 0 0 0 0 0 0 0 0 0 0 0 0 0 0 0 0 0 0 0 0 0 0 0 2 17 174 393 244 259 172
0 0 0 0 0 0 0 0 0 0 0 0 0 0 0 0 0 0 0 0 0 0 0 0 0 0 0 0 0 0 0 0 0 0 0 0 0 0 0 0 0 0 0 0 1 101 287 186 288
0 0 0 0 0 0 0 0 0 0 0 0 0 0 0 0 0 0 0 0 0 0 0 0 0 0 0 0 0 0 0 0 0 0 0 0 0 0 0 0 0 0 0 0 0 0 58 228 237
6 11 0 0 0 0 0 0 0 0 0 0 0 0 0 0 0 0 0 0 0 0 0 0 0 0 0 0 0 0 0 0 0 0 0 0 0 0 0 0 0 0 0 0 0 0 0 48 101
8 0 0 0 0 0 0 0 0 0 0 0 0 0 0 0 0 0 0 0 0 0 0 0 0 0 0 0 0 0 0 0 0 0 0 0 0 0 0 0 0 0 0 0 0 0 0 0 0
28 0 0 0 0 0 0 0 0 0 0 0 0 0 0 0 0 0 0 0 0 0 0 0 0 0 0 0 0 0 0 0 0 0 0 0 0 0 0 0 0 0 0 0 0 0 0 0 0